星链-34499 (STARLINK-34499)

导读

STARLINK-34499是美国SpaceX星链星座的卫星,于2025年6月28日发射升空,属于星链互联网卫星项目扩容任务的组成部分。该卫星依托星链系统低轨布局,为全球提供高速低延迟宽带互联网服务,尤其覆盖偏远地区和网络基础设施薄弱区域,推进星链全球覆盖组网进程。

Basic Information
目录编号:
64709
目录名称:
STARLINK-34499
国际标识:
2025-142P
轨道中心:
EARTH
卫星名称:
星链-34499
卫星全名:
星链-34499 (STARLINK-34499)
卫星状态:
在轨 (已飞行434 天)
发射日期:
2025-06-28 UTC
国别 :
美国 (US)
星等 :
--
Orbit Information
数据来源 国际轨道数据
星历时间: 2026-09-05T14:00:02+0800
9小时前
查看轨道信息
半长轴: 6880.326km
偏心率: 0.0003194
轨道倾角: 70.001°
近地点辐角 281.347°
升交点赤经 221.374°
平近点角 140.576°
近地点: 499.991km
远地点: 504.387km
周期: 94.661分钟
每日圈数: 15.212105
Detailed Information
固有亮度:
5
最大亮度:
2.5
卫星平台:
Starlink V1.0
覆盖范围:
全球
运营商:
太空探索技术公司
运营商所在国:
美国
制造商(研发单位):
太空探索技术公司
制造商所在国:
美国
使用方式:
暂无
Satellite Introduction
Starlink 计划是 SpaceX 推出的全球卫星互联网项目,通过发射低轨道卫星,为全球尤其是偏远地区提供高速、低延迟的互联网服务。自 2019 年起,Starlink 已部署数千颗卫星,旨在缩小全球数字鸿沟,推动互联网普及。该项目还为军事、航空等行业提供通信支持,带来广泛经济效益。
2D Orbit Map
3D Orbit Map
Orbit Altitude Analysis Chart
Orbit Inclination Analysis Chart
Orbit Comprehensive Analysis Chart
View Comprehensive Chart
Conjunction Data List
Event ID Objects TCA Miss Dist (km) Collision Risk Probability Collision Risk Index (CRI) Action
CDM_260906-104105-788406-470921
2026-09-06T
10:41:57+0000
0.795 km
远距离
4.865495E-5 中风险 0.69
CDM_260906-184206-245206-470921
2026-09-06T
18:42:53+0000
1.065 km
极远距离
6.210225E-6 低风险 0.51
CDM_260906-180604-780806-470921
2026-09-06T
18:06:18+0000
1.846 km
极远距离
2.792974E-6 低风险 0.44
CDM_260905-234506-470906-718421
2026-09-05T
23:45:10+0000
2.381 km
极远距离
1.729313E-6 低风险 0.4
CDM_260905-185705-276006-470921
2026-09-05T
18:57:46+0000
2.582 km
极远距离
1.680773E-6 低风险 0.4
CDM_260907-030405-877906-470921
2026-09-07T
03:04:52+0000
1.872 km
极远距离
1.60306E-6 低风险 0.39
CDM_260906-201704-974106-470921
2026-09-06T
20:17:20+0000
2.760 km
极远距离
1.411608E-6 低风险 0.38
CDM_260907-005904-974106-470921
2026-09-07T
00:59:20+0000
2.773 km
极远距离
1.402441E-6 低风险 0.38
CDM_260906-145806-470906-586121
2026-09-06T
14:58:24+0000
2.744 km
极远距离
8.829331E-7 极低风险 0.34